Flag for Brazil Weather past 2 weeks in Curitiba, Paraná, Brazil

Now
64 °F

Overcast.


Feels Like: 64 °F
Forecast: 63 / 69 °F
Wind: 5 mph from Southeast

Location: Curitiba Aeroporto

Current Time: Mar 28, 2015 at 10:10:50 PM

Latest Report: Mar 28, 2015 at 9:00 PM


Visibility: N/A

Pressure: 30.15 "Hg

Humidity: 94%

Dew point: 63 °F

Location of CuritibaLocation

Historic Weather in Curitiba — Graph

°F

Curitiba temperature yesterday

Maximum temperature yesterday: 75 °F (at 12:00 PM)
Minimum temperature yesterday: 64 °F (at 12:00 AM)
Average temperature yesterday: 68 °F

Past Weeks' High & Low Weather Summary

 TemperatureHumidityPressure
High82 °F (Mar 26, 3:00 PM)100% (Mar 14, 4:00 PM)30.27 "Hg (Mar 14, 4:00 PM)
Low37 °F (Mar 15, 5:00 PM)28% (Mar 26, 3:00 PM)29.92 "Hg (Mar 21, 2:00 PM)
Average66 °F85%30.11 "Hg
* Reported Mar 13 9:00 PM — Mar 28 9:00 PM, Curitiba, Weather by CustomWeather, © 2015

Note: Actual official high and low records may vary slightly from our data, if they occured in-between our weather recording intervals... More about our weather records

Advertising

Curitiba weather history for previous 24 hours

 ConditionsComfort  
Time TempWeatherWind HumidityBarometerVisibility
9:00 PM
Sat, Mar 28
64 °FOvercast.5 mph94%30.15 "HgN/A
8:00 PM64 °FOvercast.6 mph94%30.15 "HgN/A
7:00 PM64 °FMostly cloudy.6 mph94%30.12 "HgN/A
6:00 PM66 °FLight rain. Mostly cloudy.6 mph94%30.12 "Hg4 mi
5:00 PM66 °FLight rain. Partly sunny.7 mph88%30.12 "Hg3 mi
4:00 PM70 °FPartly sunny.12 mph78%30.12 "HgN/A
3:00 PM70 °FMostly cloudy.8 mph83%30.12 "HgN/A
2:00 PM70 °FMostly cloudy.9 mph83%30.15 "HgN/A
1:00 PM70 °FOvercast.8 mph83%30.18 "HgN/A
12:00 PM72 °FCloudy.6 mph83%30.21 "HgN/A
11:00 AM68 °FMostly cloudy.7 mph88%30.24 "HgN/A
10:00 AM68 °FMore clouds than sun.7 mph88%30.24 "HgN/A
9:00 AM66 °FMore clouds than sun.3 mph94%30.24 "HgN/A
8:00 AM64 °FFog.5 mph100%30.21 "Hg2 mi
7:00 AM64 °FFog.3 mph94%30.18 "Hg2 mi
6:00 AM64 °FBroken clouds.6 mph94%30.18 "HgN/A
5:00 AM64 °FPassing clouds.6 mph94%30.15 "HgN/A
4:00 AM64 °FPassing clouds.3 mph94%30.15 "HgN/A
3:00 AM64 °FPassing clouds.7 mph94%30.15 "HgN/A
2:00 AM64 °FPartly cloudy.5 mph94%30.18 "HgN/A
1:00 AM64 °FPassing clouds.6 mph94%30.18 "HgN/A
12:00 AM64 °FPartly cloudy.6 mph100%30.18 "Hg5 mi
11:00 PM
Fri, Mar 27
64 °FLight rain. Passing clouds.3 mph94%30.21 "Hg5 mi
10:00 PM66 °FLight rain. Passing clouds.3 mph94%30.21 "Hg6 mi
Weather by CustomWeather, © 2015

See weather overviewHow to use our weather pages